GFSFLT2_925_thetae_021.txt.gz
Theta_e
327 327 325 323 321 322 321 326 330 332 332 332 342 341 343 341 341 343 341 347 345 343 345 348 350 356 357 363 362 362 363 362
328 326 325 323 324 321 322 323 328 330 332 336 336 343 342 341 341 341 340 345 346 344 345 349 350 355 357 363 363 363 360 363
327 327 325 324 323 321 320 322 325 330 331 331 337 344 343 341 340 337 342 343 347 346 346 349 350 353 357 362 363 364 363 361
325 326 327 325 324 321 323 323 325 323 326 329 330 340 342 341 339 337 337 346 347 346 346 350 351 351 356 363 363 364 365 363
325 325 326 326 325 323 322 321 323 328 327 326 327 338 339 341 341 339 339 344 347 346 348 350 351 351 355 361 364 365 365 365
326 326 328 330 327 326 323 323 323 322 322 324 335 339 334 338 338 339 341 341 344 346 347 349 351 352 353 357 362 364 366 365
325 326 328 327 330 327 325 323 324 323 323 324 326 340 338 338 338 337 341 347 344 346 345 347 349 351 353 354 356 362 364 365
328 327 326 326 329 330 327 326 326 326 326 326 328 338 339 338 337 333 336 346 346 346 345 345 346 349 351 353 355 357 362 363
328 329 330 327 326 329 330 328 327 326 325 326 327 332 338 341 336 335 336 345 346 345 350 346 347 348 350 352 354 355 357 361
327 332 334 331 330 330 331 332 328 327 327 328 329 329 331 331 330 331 339 340 347 348 347 353 350 349 350 350 352 353 354 357
330 330 330 330 329 332 332 330 333 338 335 337 339 330 328 331 330 328 327 331 333 344 349 351 354 351 350 349 351 351 351 352
328 330 330 329 330 331 338 340 345 344 343 342 340 339 337 343 340 339 333 330 331 334 343 352 351 355 351 350 350 351 350 353
329 327 328 330 327 336 340 341 344 344 344 344 344 343 341 340 339 341 339 330 331 333 339 350 352 357 355 352 351 353 353 354
332 332 333 339 337 338 339 344 346 343 342 343 343 341 340 339 340 337 346 344 335 332 347 348 354 358 359 359 356 354 362 359
335 345 341 344 345 342 348 351 352 352 351 350 351 351 351 355 350 353 352 354 362 362 363 362 359 360 361 365 365 362 364 368
339 338 339 341 340 346 344 344 343 345 347 347 344 344 345 349 352 357 358 358 361 361 364 365 368 367 368 367 366 367 366 366
339 341 339 344 344 343 342 339 339 337 337 339 340 339 340 341 347 351 353 356 361 364 364 364 365 365 364 364 365 362 359 357
342 332 334 335 336 338 337 336 334 333 333 332 331 331 332 335 337 341 350 351 351 357 359 361 363 360 360 360 358 355 350 350
336 329 328 327 324 327 327 328 330 330 329 328 329 329 330 329 330 331 335 347 352 352 354 356 356 356 356 356 355 351 348 345

GFSFLT2_925_thetae_024.txt.gz
Theta_e
325 324 322 321 318 318 317 321 323 326 328 328 333 337 342 344 343 342 340 340 341 343 345 345 347 351 354 354 354 355 355 354
323 324 325 321 319 319 313 320 321 322 327 330 330 336 337 342 344 343 342 340 340 340 343 346 346 352 354 355 355 355 356 355
323 322 324 324 321 317 317 317 320 321 323 323 326 329 335 343 344 344 344 343 342 340 343 345 347 352 355 356 355 357 357 357
320 321 324 324 323 318 321 318 318 321 323 327 324 326 334 339 341 342 343 340 343 341 341 344 347 351 355 358 357 357 359 359
319 319 319 322 323 322 314 315 320 322 321 321 321 325 337 338 338 336 335 336 341 343 342 343 347 349 353 358 359 358 359 359
324 323 321 321 324 322 321 322 321 321 321 322 322 326 328 327 336 336 337 339 341 344 342 344 347 348 353 355 360 360 360 359
320 322 323 324 325 324 322 323 323 323 318 318 319 319 322 325 331 336 335 340 343 343 344 346 347 348 351 355 359 360 361 361
324 325 323 324 325 325 324 324 322 320 320 318 319 319 325 329 335 333 336 336 341 344 345 345 348 348 349 354 360 360 361 362
322 323 323 325 325 325 325 325 323 322 321 320 322 325 328 331 333 332 329 339 340 343 344 346 348 349 349 352 358 361 361 362
321 322 325 324 324 324 323 326 324 323 322 322 323 323 326 331 331 328 331 335 340 342 343 346 348 349 350 350 354 359 360 361
322 326 325 329 327 325 323 325 327 324 324 325 328 325 338 336 329 328 328 330 335 341 343 343 345 347 349 350 352 354 357 360
323 326 328 326 328 328 329 331 342 337 338 336 331 328 330 338 338 337 336 330 327 341 347 347 344 345 347 348 351 352 354 355
324 329 323 325 327 333 334 333 342 340 339 337 340 334 335 337 337 337 335 337 332 327 335 347 350 346 345 347 349 351 352 353
330 331 329 331 336 331 332 343 339 343 339 337 342 351 353 350 346 340 335 337 340 327 325 335 346 349 347 346 347 349 350 351
332 338 330 337 341 345 347 348 349 349 348 349 348 349 351 353 354 356 355 355 356 335 327 329 343 351 350 348 347 348 349 349
333 336 334 331 330 339 340 340 339 340 341 343 345 345 347 349 350 352 353 355 357 357 355 357 354 349 351 352 350 351 353 354
334 333 333 330 328 333 336 334 334 332 333 334 337 336 338 338 340 345 349 350 353 354 357 358 360 359 359 361 355 361 362 363
337 331 328 329 328 333 331 330 329 330 330 329 330 329 330 330 331 335 342 347 346 346 347 349 350 354 362 363 361 359 357 351
333 328 327 328 326 325 327 328 328 327 326 326 325 326 327 327 327 332 339 344 346 347 349 349 327 322 350 355 356 354 349 344

GFSFLT2_925_thetae_030.txt.gz
Theta_e
319 319 320 317 320 316 316 316 316 318 319 322 324 325 334 337 337 338 337 342 343 344 344 343 344 346 348 349 349 349 349 349
320 319 319 317 315 320 311 321 320 318 318 324 326 327 327 334 336 337 337 337 341 342 342 343 343 345 347 349 349 349 350 350
319 321 322 318 317 314 316 314 319 318 320 316 322 325 326 328 335 336 335 336 337 340 341 342 342 343 346 348 349 349 351 351
318 318 321 322 321 314 318 317 312 315 320 318 318 323 325 326 328 334 335 336 336 338 339 341 341 342 344 347 348 349 351 352
316 317 317 319 320 316 318 314 319 319 321 320 318 320 321 322 323 327 334 336 336 335 338 339 340 341 343 346 348 348 349 352
319 319 318 317 318 319 320 321 322 320 319 319 319 319 319 322 325 329 332 333 334 335 336 338 340 341 342 344 347 348 348 350
317 317 318 319 319 319 318 321 322 323 322 320 318 318 319 320 324 324 329 332 334 336 335 336 339 341 342 345 346 348 349 349
317 318 318 319 319 320 320 318 318 321 320 316 318 317 318 319 319 320 322 325 329 336 337 335 338 341 342 345 347 349 349 349
318 317 318 319 318 319 319 318 319 319 320 318 317 317 318 319 318 319 319 324 328 331 337 336 337 340 342 345 348 350 350 350
316 317 321 318 318 320 319 320 318 318 319 320 321 321 319 319 320 319 319 321 326 329 333 338 338 339 341 345 349 351 351 351
317 318 317 318 328 334 334 331 321 320 320 319 319 319 320 318 317 319 320 323 324 329 333 336 338 339 341 344 348 352 352 352
315 320 322 322 333 334 335 338 329 329 321 321 318 320 322 320 325 321 322 323 325 328 333 334 338 340 342 344 348 351 354 354
314 320 320 320 332 335 333 331 337 336 338 322 321 323 322 324 331 325 325 327 328 328 335 335 337 341 343 344 347 349 352 354
314 319 319 327 331 340 334 334 336 336 339 339 319 323 331 334 339 340 347 351 343 338 337 329 339 343 343 344 345 348 352 354
314 315 317 329 331 330 330 335 335 334 335 339 332 344 348 351 351 352 353 352 351 352 353 353 340 341 340 340 344 346 348 353
320 321 325 329 329 329 331 332 331 332 334 343 348 347 348 349 348 347 346 350 351 350 347 346 346 346 348 351 348 346 345 348
318 320 329 330 327 327 331 330 330 330 330 331 338 337 340 341 342 342 341 340 340 338 334 331 329 333 338 345 351 350 345 342
316 319 326 328 326 326 331 331 331 331 332 330 332 334 335 336 336 337 335 333 338 341 341 338 335 331 330 334 336 342 351 349
318 321 325 326 327 327 330 329 328 330 331 334 333 334 336 337 336 336 339 339 339 339 339 340 341 340 337 334 339 339 338 346

GFSFLT2_925_thetae_036.txt.gz
Theta_e
325 325 326 328 328 326 325 327 328 328 329 330 332 334 335 335 336 339 349 352 353 353 353 354 354 355 355 356 358 358 358 359
325 325 326 327 327 326 326 329 329 327 329 331 332 333 334 335 337 338 343 349 350 352 352 353 354 355 356 357 358 358 357 358
326 326 326 326 327 327 327 326 328 329 328 330 331 334 334 335 337 338 341 346 349 350 349 350 352 354 355 357 358 358 357 358
328 326 325 326 327 327 327 330 327 329 328 327 328 330 333 334 335 337 339 341 344 346 347 349 351 351 352 354 356 356 357 359
331 328 327 327 327 327 327 328 331 329 327 329 330 330 332 333 334 335 337 340 342 343 344 347 349 351 351 351 353 354 356 357
332 331 328 328 327 327 327 330 329 330 329 328 327 330 329 330 331 333 336 337 339 341 343 343 346 350 352 350 351 352 353 355
329 326 325 329 327 328 329 329 330 329 330 330 329 330 330 330 330 330 332 335 337 342 344 348 347 349 353 351 350 351 354 354
326 323 323 325 326 327 328 329 330 330 330 330 330 330 330 331 331 332 333 332 332 336 345 350 350 350 350 352 350 351 354 356
327 325 323 326 326 327 327 328 329 331 330 330 330 330 330 330 331 331 332 333 334 335 340 344 346 348 350 352 351 352 354 357
323 324 327 326 326 326 326 327 327 328 328 329 329 329 329 330 330 330 331 332 334 334 335 336 339 339 342 347 353 354 356 357
321 322 324 324 322 324 326 328 327 328 328 328 327 327 329 328 329 332 332 333 334 333 332 333 335 336 338 345 350 354 357 358
317 321 324 323 323 323 325 332 330 334 334 337 337 330 329 329 329 332 332 332 333 331 331 333 336 338 342 345 348 355 356 357
314 317 319 320 325 330 330 342 337 337 339 340 343 343 343 343 342 340 338 335 334 335 335 335 338 341 343 345 349 352 353 354
314 315 316 316 317 321 326 326 332 333 332 335 336 338 339 341 345 345 343 336 337 341 338 339 347 348 348 356 350 352 353 355
313 313 314 316 317 320 320 322 324 329 330 334 336 338 339 342 347 348 342 342 346 342 344 346 351 349 352 354 353 354 355 357
314 313 314 315 315 317 317 319 323 325 326 329 334 335 338 345 351 347 350 355 354 355 353 356 356 355 355 357 356 356 357 359
315 315 315 314 314 315 317 317 317 320 326 328 329 336 340 350 352 352 357 358 358 358 356 356 356 358 358 357 356 357 359 359
315 314 315 316 315 315 315 314 321 323 328 329 330 339 345 352 353 355 354 350 349 348 347 345 345 347 348 353 358 356 356 355
314 313 314 315 315 316 318 320 322 324 330 333 338 342 347 349 350 349 351 351 349 348 348 349 348 348 347 348 348 349 351 353